Year,Month,Day,Hour,Minute,Value (Times are PST for temperature in C)
2009,07,16,00,00,15.30
2009,07,16,00,01,15.30
2009,07,16,00,02,15.30
2009,07,16,00,03,15.20
2009,07,16,00,04,15.20
2009,07,16,00,05,15.20
2009,07,16,00,06,15.20
2009,07,16,00,07,15.10
2009,07,16,00,08,15.10
2009,07,16,00,09,15.10
2009,07,16,00,10,15.10
2009,07,16,00,11,15.10
2009,07,16,00,12,15.00
2009,07,16,00,13,15.00
2009,07,16,00,14,15.00
2009,07,16,00,15,15.00
2009,07,16,00,16,15.00
2009,07,16,00,17,15.00
2009,07,16,00,18,15.00
2009,07,16,00,19,14.90
2009,07,16,00,20,14.90
2009,07,16,00,21,14.90
2009,07,16,00,22,14.90
2009,07,16,00,23,14.90
2009,07,16,00,24,14.90
2009,07,16,00,25,14.90
2009,07,16,00,26,14.90
2009,07,16,00,27,14.90
2009,07,16,00,28,14.90
2009,07,16,00,29,14.90
2009,07,16,00,30,14.90
2009,07,16,00,31,14.90
2009,07,16,00,32,14.90
2009,07,16,00,33,14.90
2009,07,16,00,34,14.90
2009,07,16,00,35,14.90
2009,07,16,00,36,14.90
2009,07,16,00,37,15.00
2009,07,16,00,38,15.00
2009,07,16,00,39,15.00
2009,07,16,00,40,15.00
2009,07,16,00,41,15.00
2009,07,16,00,42,15.00
2009,07,16,00,43,15.00
2009,07,16,00,44,15.00
2009,07,16,00,45,15.00
2009,07,16,00,46,15.00
2009,07,16,00,47,14.90
2009,07,16,00,48,14.90
2009,07,16,00,49,14.80
2009,07,16,00,50,14.80
2009,07,16,00,51,14.80
2009,07,16,00,52,14.80
2009,07,16,00,53,14.80
2009,07,16,00,54,14.70
2009,07,16,00,55,14.70
2009,07,16,00,56,14.70
2009,07,16,00,57,14.70
2009,07,16,00,58,14.70
2009,07,16,00,59,14.60
2009,07,16,01,00,14.60
2009,07,16,01,01,14.60
2009,07,16,01,02,14.60
2009,07,16,01,03,14.60
2009,07,16,01,04,14.60
2009,07,16,01,05,14.50
2009,07,16,01,06,14.50
2009,07,16,01,07,14.50
2009,07,16,01,08,14.50
2009,07,16,01,09,14.50
2009,07,16,01,10,14.50
2009,07,16,01,11,14.50
2009,07,16,01,12,14.50
2009,07,16,01,13,14.40
2009,07,16,01,14,14.40
2009,07,16,01,15,14.40
2009,07,16,01,16,14.40
2009,07,16,01,17,14.30
2009,07,16,01,18,14.30
2009,07,16,01,19,14.30
2009,07,16,01,20,14.30
2009,07,16,01,21,14.20
2009,07,16,01,22,14.20
2009,07,16,01,23,14.20
2009,07,16,01,24,14.20
2009,07,16,01,25,14.20
2009,07,16,01,26,14.20
2009,07,16,01,27,14.20
2009,07,16,01,28,14.20
2009,07,16,01,29,14.10
2009,07,16,01,30,14.10
2009,07,16,01,31,14.10
2009,07,16,01,32,14.10
2009,07,16,01,33,14.10
2009,07,16,01,34,14.00
2009,07,16,01,35,14.00
2009,07,16,01,36,14.00
2009,07,16,01,37,14.00
2009,07,16,01,38,13.90
2009,07,16,01,39,13.90
2009,07,16,01,40,13.90
2009,07,16,01,41,13.90
2009,07,16,01,42,13.80
2009,07,16,01,43,13.80
2009,07,16,01,44,13.80
2009,07,16,01,45,13.80
2009,07,16,01,46,13.70
2009,07,16,01,47,13.70
2009,07,16,01,48,13.70
2009,07,16,01,49,13.70
2009,07,16,01,50,13.70
2009,07,16,01,51,13.70
2009,07,16,01,52,13.70
2009,07,16,01,53,13.70
2009,07,16,01,54,13.70
2009,07,16,01,55,13.70
2009,07,16,01,56,13.60
2009,07,16,01,57,13.60
2009,07,16,01,58,13.60
2009,07,16,01,59,13.60
2009,07,16,02,00,13.60
2009,07,16,02,01,13.60
2009,07,16,02,02,13.60
2009,07,16,02,03,13.60
2009,07,16,02,04,13.60
2009,07,16,02,05,13.50
2009,07,16,02,06,13.50
2009,07,16,02,07,13.50
2009,07,16,02,08,13.50
2009,07,16,02,09,13.50
2009,07,16,02,10,13.50
2009,07,16,02,11,13.40
2009,07,16,02,12,13.40
2009,07,16,02,13,13.40
2009,07,16,02,14,13.40
2009,07,16,02,15,13.30
2009,07,16,02,16,13.30
2009,07,16,02,17,13.30
2009,07,16,02,18,13.30
2009,07,16,02,19,13.30
2009,07,16,02,20,13.30
2009,07,16,02,21,13.30
2009,07,16,02,22,13.30
2009,07,16,02,23,13.30
2009,07,16,02,24,13.20
2009,07,16,02,25,13.20
2009,07,16,02,26,13.20
2009,07,16,02,27,13.20
2009,07,16,02,28,13.20
2009,07,16,02,29,13.20
2009,07,16,02,30,13.20
2009,07,16,02,31,13.10
2009,07,16,02,32,13.10
2009,07,16,02,33,13.10
2009,07,16,02,34,13.10
2009,07,16,02,35,13.00
2009,07,16,02,36,13.00
2009,07,16,02,37,13.00
2009,07,16,02,38,12.90
2009,07,16,02,39,12.90
2009,07,16,02,40,12.90
2009,07,16,02,41,12.80
2009,07,16,02,42,12.80
2009,07,16,02,43,12.80
2009,07,16,02,44,12.80
2009,07,16,02,45,12.80
2009,07,16,02,46,12.80
2009,07,16,02,47,12.80
2009,07,16,02,48,12.80
2009,07,16,02,49,12.80
2009,07,16,02,50,12.80
2009,07,16,02,51,12.70
2009,07,16,02,52,12.70
2009,07,16,02,53,12.70
2009,07,16,02,54,12.70
2009,07,16,02,55,12.70
2009,07,16,02,56,12.70
2009,07,16,02,57,12.60
2009,07,16,02,58,12.60
2009,07,16,02,59,12.60
2009,07,16,03,00,12.60
2009,07,16,03,01,12.50
2009,07,16,03,02,12.50
2009,07,16,03,03,12.50
2009,07,16,03,04,12.40
2009,07,16,03,05,12.40
2009,07,16,03,06,12.30
2009,07,16,03,07,12.30
2009,07,16,03,08,12.30
2009,07,16,03,09,12.30
2009,07,16,03,10,12.20
2009,07,16,03,11,12.20
2009,07,16,03,12,12.20
2009,07,16,03,13,12.20
2009,07,16,03,14,12.20
2009,07,16,03,15,12.20
2009,07,16,03,16,12.10
2009,07,16,03,17,12.10
2009,07,16,03,18,12.10
2009,07,16,03,19,12.10
2009,07,16,03,20,12.10
2009,07,16,03,21,12.10
2009,07,16,03,22,12.00
2009,07,16,03,23,12.00
2009,07,16,03,24,12.00
2009,07,16,03,25,12.00
2009,07,16,03,26,12.00
2009,07,16,03,27,12.00
2009,07,16,03,28,12.00
2009,07,16,03,29,12.00
2009,07,16,03,30,12.00
2009,07,16,03,31,11.90
2009,07,16,03,32,11.90
2009,07,16,03,33,11.90
2009,07,16,03,34,11.90
2009,07,16,03,35,11.90
2009,07,16,03,36,11.90
2009,07,16,03,37,11.90
2009,07,16,03,38,11.80
2009,07,16,03,39,11.80
2009,07,16,03,40,11.80
2009,07,16,03,41,11.80
2009,07,16,03,42,11.80
2009,07,16,03,43,11.80
2009,07,16,03,44,11.80
2009,07,16,03,45,11.80
2009,07,16,03,46,11.80
2009,07,16,03,47,11.70
2009,07,16,03,48,11.70
2009,07,16,03,49,11.70
2009,07,16,03,50,11.70
2009,07,16,03,51,11.70
2009,07,16,03,52,11.70
2009,07,16,03,53,11.60
2009,07,16,03,54,11.60
2009,07,16,03,55,11.60
2009,07,16,03,56,11.60
2009,07,16,03,57,11.60
2009,07,16,03,58,11.60
2009,07,16,03,59,11.60
2009,07,16,04,00,11.60
2009,07,16,04,01,11.60
2009,07,16,04,02,11.60
2009,07,16,04,03,11.60
2009,07,16,04,04,11.60
2009,07,16,04,05,11.60
2009,07,16,04,06,11.60
2009,07,16,04,07,11.60
2009,07,16,04,08,11.60
2009,07,16,04,09,11.50
2009,07,16,04,10,11.40
2009,07,16,04,11,11.40
2009,07,16,04,12,11.40
2009,07,16,04,13,11.40
2009,07,16,04,14,11.40
2009,07,16,04,15,11.40
2009,07,16,04,16,11.40
2009,07,16,04,17,11.40
2009,07,16,04,18,11.40
2009,07,16,04,19,11.40
2009,07,16,04,20,11.40
2009,07,16,04,21,11.40
2009,07,16,04,22,11.40
2009,07,16,04,23,11.40
2009,07,16,04,24,11.40
2009,07,16,04,25,11.40
2009,07,16,04,26,11.40
2009,07,16,04,27,11.40
2009,07,16,04,28,11.40
2009,07,16,04,29,11.40
2009,07,16,04,30,11.40
2009,07,16,04,31,11.40
2009,07,16,04,32,11.40
2009,07,16,04,33,11.40
2009,07,16,04,34,11.40
2009,07,16,04,35,11.40
2009,07,16,04,36,11.40
2009,07,16,04,37,11.40
2009,07,16,04,38,11.40
2009,07,16,04,39,11.40
2009,07,16,04,40,11.40
2009,07,16,04,41,11.40
2009,07,16,04,42,11.40
2009,07,16,04,43,11.40
2009,07,16,04,44,11.40
2009,07,16,04,45,11.40
2009,07,16,04,46,11.40
2009,07,16,04,47,11.40
2009,07,16,04,48,11.40
2009,07,16,04,49,11.40
2009,07,16,04,50,11.40
2009,07,16,04,51,11.40
2009,07,16,04,52,11.40
2009,07,16,04,53,11.40
2009,07,16,04,54,11.40
2009,07,16,04,55,11.40
2009,07,16,04,56,11.40
2009,07,16,04,57,11.40
2009,07,16,04,58,11.40
2009,07,16,04,59,11.40
2009,07,16,05,00,11.40
2009,07,16,05,01,11.40
2009,07,16,05,02,11.40
2009,07,16,05,03,11.40
2009,07,16,05,04,11.40
2009,07,16,05,05,11.40
2009,07,16,05,06,11.40
2009,07,16,05,07,11.40
2009,07,16,05,08,11.40
2009,07,16,05,09,11.40
2009,07,16,05,10,11.40
2009,07,16,05,11,11.40
2009,07,16,05,12,11.40
2009,07,16,05,13,11.40
2009,07,16,05,14,11.30
2009,07,16,05,15,11.30
2009,07,16,05,16,11.40
2009,07,16,05,17,11.40
2009,07,16,05,18,11.40
2009,07,16,05,19,11.40
2009,07,16,05,20,11.40
2009,07,16,05,21,11.40
2009,07,16,05,22,11.40
2009,07,16,05,23,11.40
2009,07,16,05,24,11.40
2009,07,16,05,25,11.40
2009,07,16,05,26,11.40
2009,07,16,05,27,11.40
2009,07,16,05,28,11.40
2009,07,16,05,29,11.40
2009,07,16,05,30,11.40
2009,07,16,05,31,11.40
2009,07,16,05,32,11.40
2009,07,16,05,33,11.40
2009,07,16,05,34,11.40
2009,07,16,05,35,11.30
2009,07,16,05,36,11.30
2009,07,16,05,37,11.30
2009,07,16,05,38,11.30
2009,07,16,05,39,11.30
2009,07,16,05,40,11.30
2009,07,16,05,41,11.30
2009,07,16,05,42,11.30
2009,07,16,05,43,11.30
2009,07,16,05,44,11.30
2009,07,16,05,45,11.30
2009,07,16,05,46,11.30
2009,07,16,05,47,11.30
2009,07,16,05,48,11.40
2009,07,16,05,49,11.40
2009,07,16,05,50,11.40
2009,07,16,05,51,11.40
2009,07,16,05,52,11.40
2009,07,16,05,53,11.40
2009,07,16,05,54,11.40
2009,07,16,05,55,11.40
2009,07,16,05,56,11.40
2009,07,16,05,57,11.40
2009,07,16,05,58,11.40
2009,07,16,05,59,11.40
2009,07,16,06,00,11.60
2009,07,16,06,01,11.60
2009,07,16,06,02,11.60
2009,07,16,06,03,11.60
2009,07,16,06,04,11.60
2009,07,16,06,05,11.70
2009,07,16,06,06,11.70
2009,07,16,06,07,11.80
2009,07,16,06,08,11.80
2009,07,16,06,09,11.80
2009,07,16,06,10,11.80
2009,07,16,06,11,11.80
2009,07,16,06,12,11.80
2009,07,16,06,13,11.80
2009,07,16,06,14,11.80
2009,07,16,06,15,11.90
2009,07,16,06,16,11.90
2009,07,16,06,17,11.90
2009,07,16,06,18,12.00
2009,07,16,06,19,12.00
2009,07,16,06,20,12.00
2009,07,16,06,21,12.10
2009,07,16,06,22,12.10
2009,07,16,06,23,12.10
2009,07,16,06,24,12.10
2009,07,16,06,25,12.20
2009,07,16,06,26,12.10
2009,07,16,06,27,12.10
2009,07,16,06,28,12.10
2009,07,16,06,29,12.10
2009,07,16,06,30,12.20
2009,07,16,06,31,12.20
2009,07,16,06,32,12.20
2009,07,16,06,33,12.20
2009,07,16,06,34,12.20
2009,07,16,06,35,12.20
2009,07,16,06,36,12.30
2009,07,16,06,37,12.30
2009,07,16,06,38,12.30
2009,07,16,06,39,12.30
2009,07,16,06,40,12.30
2009,07,16,06,41,12.40
2009,07,16,06,42,12.40
2009,07,16,06,43,12.50
2009,07,16,06,44,12.50
2009,07,16,06,45,12.60
2009,07,16,06,46,12.60
2009,07,16,06,47,12.70
2009,07,16,06,48,12.70
2009,07,16,06,49,12.80
2009,07,16,06,50,12.80
2009,07,16,06,51,12.80
2009,07,16,06,52,12.80
2009,07,16,06,53,12.90
2009,07,16,06,54,13.00
2009,07,16,06,55,13.00
2009,07,16,06,56,13.10
2009,07,16,06,57,13.10
2009,07,16,06,58,13.20
2009,07,16,06,59,13.30
2009,07,16,07,00,13.30
2009,07,16,07,01,13.30
2009,07,16,07,02,13.30
2009,07,16,07,03,13.30
2009,07,16,07,04,13.40
2009,07,16,07,05,13.40
2009,07,16,07,06,13.40
2009,07,16,07,07,13.40
2009,07,16,07,08,13.40
2009,07,16,07,09,13.50
2009,07,16,07,10,13.50
2009,07,16,07,11,13.60
2009,07,16,07,12,13.60
2009,07,16,07,13,13.70
2009,07,16,07,14,13.70
2009,07,16,07,15,13.80
2009,07,16,07,16,13.80
2009,07,16,07,17,13.90
2009,07,16,07,18,14.00
2009,07,16,07,19,14.10
2009,07,16,07,20,14.20
2009,07,16,07,21,14.30
2009,07,16,07,22,14.40
2009,07,16,07,23,14.50
2009,07,16,07,24,14.50
2009,07,16,07,25,14.60
2009,07,16,07,26,14.60
2009,07,16,07,27,14.70
2009,07,16,07,28,14.70
2009,07,16,07,29,14.80
2009,07,16,07,30,14.80
2009,07,16,07,31,14.90
2009,07,16,07,32,14.90
2009,07,16,07,33,15.00
2009,07,16,07,34,15.00
2009,07,16,07,35,15.10
2009,07,16,07,36,15.20
2009,07,16,07,37,15.20
2009,07,16,07,38,15.30
2009,07,16,07,39,15.30
2009,07,16,07,40,15.30
2009,07,16,07,41,15.30
2009,07,16,07,42,15.40
2009,07,16,07,43,15.40
2009,07,16,07,44,15.40
2009,07,16,07,45,15.40
2009,07,16,07,46,15.30
2009,07,16,07,47,15.30
2009,07,16,07,48,15.30
2009,07,16,07,49,15.30
2009,07,16,07,50,15.30
2009,07,16,07,51,15.30
2009,07,16,07,52,15.30
2009,07,16,07,53,15.30
2009,07,16,07,54,15.30
2009,07,16,07,55,15.30
2009,07,16,07,56,15.30
2009,07,16,07,57,15.30
2009,07,16,07,58,15.30
2009,07,16,07,59,15.30
2009,07,16,08,00,15.30
2009,07,16,08,01,15.40
2009,07,16,08,02,15.50
2009,07,16,08,03,15.60
2009,07,16,08,04,15.60
2009,07,16,08,05,15.70
2009,07,16,08,06,15.70
2009,07,16,08,07,15.70
2009,07,16,08,08,15.70
2009,07,16,08,09,15.60
2009,07,16,08,10,15.60
2009,07,16,08,11,15.70
2009,07,16,08,12,15.70
2009,07,16,08,13,15.70
2009,07,16,08,14,15.70
2009,07,16,08,15,15.70
2009,07,16,08,16,15.70
2009,07,16,08,17,15.80
2009,07,16,08,18,15.80
2009,07,16,08,19,15.80
2009,07,16,08,20,15.80
2009,07,16,08,21,15.80
2009,07,16,08,22,15.80
2009,07,16,08,23,15.80
2009,07,16,08,24,15.80
2009,07,16,08,25,15.70
2009,07,16,08,26,15.60
2009,07,16,08,27,15.60
2009,07,16,08,28,15.60
2009,07,16,08,29,15.60
2009,07,16,08,30,15.60
2009,07,16,08,31,15.60
2009,07,16,08,32,15.60
2009,07,16,08,33,15.60
2009,07,16,08,34,15.60
2009,07,16,08,35,15.70
2009,07,16,08,36,15.80
2009,07,16,08,37,15.80
2009,07,16,08,38,15.80
2009,07,16,08,39,15.80
2009,07,16,08,40,15.70
2009,07,16,08,41,15.60
2009,07,16,08,42,15.60
2009,07,16,08,43,15.70
2009,07,16,08,44,15.80
2009,07,16,08,45,15.80
2009,07,16,08,46,15.80
2009,07,16,08,47,15.80
2009,07,16,08,48,15.90
2009,07,16,08,49,16.10
2009,07,16,08,50,16.10
2009,07,16,08,51,16.10
2009,07,16,08,52,16.10
2009,07,16,08,53,16.10
2009,07,16,08,54,16.10
2009,07,16,08,55,16.10
2009,07,16,08,56,16.20
2009,07,16,08,57,16.20
2009,07,16,08,58,16.20
2009,07,16,08,59,16.30
2009,07,16,09,00,16.30
2009,07,16,09,01,16.40
2009,07,16,09,02,16.50
2009,07,16,09,03,16.70
2009,07,16,09,04,16.60
2009,07,16,09,05,16.70
2009,07,16,09,06,16.70
2009,07,16,09,07,16.80
2009,07,16,09,08,16.80
2009,07,16,09,09,16.80
2009,07,16,09,10,16.80
2009,07,16,09,11,16.80
2009,07,16,09,12,16.70
2009,07,16,09,13,16.70
2009,07,16,09,14,16.60
2009,07,16,09,15,16.60
2009,07,16,09,16,16.60
2009,07,16,09,17,16.50
2009,07,16,09,18,16.40
2009,07,16,09,19,16.30
2009,07,16,09,20,16.30
2009,07,16,09,21,16.30
2009,07,16,09,22,16.20
2009,07,16,09,23,16.10
2009,07,16,09,24,16.10
2009,07,16,09,25,16.10
2009,07,16,09,26,16.10
2009,07,16,09,27,16.00
2009,07,16,09,28,15.90
2009,07,16,09,29,15.90
2009,07,16,09,30,15.80
2009,07,16,09,31,15.70
2009,07,16,09,32,15.60
2009,07,16,09,33,15.50
2009,07,16,09,34,15.40
2009,07,16,09,35,15.30
2009,07,16,09,36,15.40
2009,07,16,09,37,15.40
2009,07,16,09,38,15.40
2009,07,16,09,39,15.30
2009,07,16,09,40,15.20
2009,07,16,09,41,15.20
2009,07,16,09,42,15.20
2009,07,16,09,43,15.20
2009,07,16,09,44,15.10
2009,07,16,09,45,15.20
2009,07,16,09,46,15.20
2009,07,16,09,47,15.30
2009,07,16,09,48,15.40
2009,07,16,09,49,15.50
2009,07,16,09,50,15.60
2009,07,16,09,51,15.70
2009,07,16,09,52,15.80
2009,07,16,09,53,15.80
2009,07,16,09,54,15.80
2009,07,16,09,55,15.90
2009,07,16,09,56,16.10
2009,07,16,09,57,16.10
2009,07,16,09,58,16.10
2009,07,16,09,59,16.20
2009,07,16,10,00,16.30
2009,07,16,10,01,16.40
2009,07,16,10,02,16.60
2009,07,16,10,03,16.80
2009,07,16,10,04,16.90
2009,07,16,10,05,17.10
2009,07,16,10,06,17.30
2009,07,16,10,07,17.40
2009,07,16,10,08,17.60
2009,07,16,10,09,17.70
2009,07,16,10,10,17.90
2009,07,16,10,11,17.90
2009,07,16,10,12,18.10
2009,07,16,10,13,18.00
2009,07,16,10,14,17.90
2009,07,16,10,15,17.90
2009,07,16,10,16,18.00
2009,07,16,10,17,18.10
2009,07,16,10,18,18.10
2009,07,16,10,19,18.20
2009,07,16,10,20,18.20
2009,07,16,10,21,18.30
2009,07,16,10,22,18.30
2009,07,16,10,23,18.30
2009,07,16,10,24,18.40
2009,07,16,10,25,18.50
2009,07,16,10,26,18.70
2009,07,16,10,27,18.90
2009,07,16,10,28,18.90
2009,07,16,10,29,18.90
2009,07,16,10,30,19.00
2009,07,16,10,31,19.10
2009,07,16,10,32,19.10
2009,07,16,10,33,19.00
2009,07,16,10,34,18.90
2009,07,16,10,35,18.90
2009,07,16,10,36,18.90
2009,07,16,10,37,19.00
2009,07,16,10,38,19.10
2009,07,16,10,39,19.10
2009,07,16,10,40,19.10
2009,07,16,10,41,19.10
2009,07,16,10,42,19.10
2009,07,16,10,43,19.10
2009,07,16,10,44,19.10
2009,07,16,10,45,19.10
2009,07,16,10,46,19.10
2009,07,16,10,47,19.10
2009,07,16,10,48,19.00
2009,07,16,10,49,18.90
2009,07,16,10,50,18.90
2009,07,16,10,51,18.90
2009,07,16,10,52,19.10
2009,07,16,10,53,19.30
2009,07,16,10,54,19.40
2009,07,16,10,55,19.60
2009,07,16,10,56,19.70
2009,07,16,10,57,19.70
2009,07,16,10,58,19.80
2009,07,16,10,59,19.80
2009,07,16,11,00,19.80
2009,07,16,11,01,19.90
2009,07,16,11,02,19.90
2009,07,16,11,03,19.90
2009,07,16,11,04,19.90
2009,07,16,11,05,19.90
2009,07,16,11,06,19.80
2009,07,16,11,07,19.70
2009,07,16,11,08,19.50
2009,07,16,11,09,19.40
2009,07,16,11,10,19.40
2009,07,16,11,11,19.30
2009,07,16,11,12,19.40
2009,07,16,11,13,19.40
2009,07,16,11,14,19.50
2009,07,16,11,15,19.60
2009,07,16,11,16,19.60
2009,07,16,11,17,19.80
2009,07,16,11,18,19.90
2009,07,16,11,19,19.90
2009,07,16,11,20,19.90
2009,07,16,11,21,19.90
2009,07,16,11,22,19.90
2009,07,16,11,23,19.90
2009,07,16,11,24,19.80
2009,07,16,11,25,19.70
2009,07,16,11,26,19.70
2009,07,16,11,27,19.70
2009,07,16,11,28,19.80
2009,07,16,11,29,19.90
2009,07,16,11,30,19.90
2009,07,16,11,31,20.10
2009,07,16,11,32,20.20
2009,07,16,11,33,20.20
2009,07,16,11,34,20.20
2009,07,16,11,35,20.40
2009,07,16,11,36,20.50
2009,07,16,11,37,20.50
2009,07,16,11,38,20.50
2009,07,16,11,39,20.50
2009,07,16,11,40,20.70
2009,07,16,11,41,20.80
2009,07,16,11,42,21.00
2009,07,16,11,43,21.10
2009,07,16,11,44,21.00
2009,07,16,11,45,20.90
2009,07,16,11,46,20.80
2009,07,16,11,47,20.80
2009,07,16,11,48,20.70
2009,07,16,11,49,20.70
2009,07,16,11,50,20.70
2009,07,16,11,51,20.70
2009,07,16,11,52,20.50
2009,07,16,11,53,20.40
2009,07,16,11,54,20.30
2009,07,16,11,55,20.20
2009,07,16,11,56,20.20
2009,07,16,11,57,20.20
2009,07,16,11,58,20.20
2009,07,16,11,59,20.30
2009,07,16,12,00,20.30
2009,07,16,12,01,20.40
2009,07,16,12,02,20.50
2009,07,16,12,03,20.60
2009,07,16,12,04,20.70
2009,07,16,12,05,20.80
2009,07,16,12,06,20.90
2009,07,16,12,07,20.80
2009,07,16,12,08,20.80
2009,07,16,12,09,20.90
2009,07,16,12,10,20.80
2009,07,16,12,11,20.80
2009,07,16,12,12,20.80
2009,07,16,12,13,20.80
2009,07,16,12,14,20.80
2009,07,16,12,15,20.80
2009,07,16,12,16,20.80
2009,07,16,12,17,20.80
2009,07,16,12,18,20.90
2009,07,16,12,19,20.90
2009,07,16,12,20,20.90
2009,07,16,12,21,21.00
2009,07,16,12,22,21.10
2009,07,16,12,23,21.20
2009,07,16,12,24,21.20
2009,07,16,12,25,21.30
2009,07,16,12,26,21.40
2009,07,16,12,27,21.50
2009,07,16,12,28,21.50
2009,07,16,12,29,21.30
2009,07,16,12,30,21.30
2009,07,16,12,31,21.40
2009,07,16,12,32,21.60
2009,07,16,12,33,21.70
2009,07,16,12,34,21.80
2009,07,16,12,35,21.70
2009,07,16,12,36,21.60
2009,07,16,12,37,21.30
2009,07,16,12,38,21.30
2009,07,16,12,39,21.20
2009,07,16,12,40,21.10
2009,07,16,12,41,21.00
2009,07,16,12,42,20.90
2009,07,16,12,43,20.80
2009,07,16,12,44,20.70
2009,07,16,12,45,20.50
2009,07,16,12,46,20.50
2009,07,16,12,47,20.50
2009,07,16,12,48,20.50
2009,07,16,12,49,20.50
2009,07,16,12,50,20.60
2009,07,16,12,51,20.70
2009,07,16,12,52,20.70
2009,07,16,12,53,20.80
2009,07,16,12,54,20.70
2009,07,16,12,55,20.60
2009,07,16,12,56,20.60
2009,07,16,12,57,20.60
2009,07,16,12,58,20.60
2009,07,16,12,59,20.70
2009,07,16,13,00,20.90
2009,07,16,13,01,21.10
2009,07,16,13,02,21.30
2009,07,16,13,03,21.20
2009,07,16,13,04,21.10
2009,07,16,13,05,20.90
2009,07,16,13,06,20.80
2009,07,16,13,07,20.80
2009,07,16,13,08,20.50
2009,07,16,13,09,20.30
2009,07,16,13,10,20.20
2009,07,16,13,11,20.20
2009,07,16,13,12,20.00
2009,07,16,13,13,19.90
2009,07,16,13,14,19.90
2009,07,16,13,15,19.70
2009,07,16,13,16,19.60
2009,07,16,13,17,19.60
2009,07,16,13,18,19.60
2009,07,16,13,19,19.70
2009,07,16,13,20,19.90
2009,07,16,13,21,20.00
2009,07,16,13,22,20.10
2009,07,16,13,23,20.20
2009,07,16,13,24,20.30
2009,07,16,13,25,20.40
2009,07,16,13,26,20.50
2009,07,16,13,27,20.60
2009,07,16,13,28,20.70
2009,07,16,13,29,20.80
2009,07,16,13,30,20.80
2009,07,16,13,31,20.80
2009,07,16,13,32,20.80
2009,07,16,13,33,20.80
2009,07,16,13,34,20.90
2009,07,16,13,35,21.00
2009,07,16,13,36,21.10
2009,07,16,13,37,21.10
2009,07,16,13,38,21.00
2009,07,16,13,39,21.00
2009,07,16,13,40,20.90
2009,07,16,13,41,20.90
2009,07,16,13,42,21.00
2009,07,16,13,43,21.20
2009,07,16,13,44,21.30
2009,07,16,13,45,21.30
2009,07,16,13,46,21.40
2009,07,16,13,47,21.60
2009,07,16,13,48,21.70
2009,07,16,13,49,21.70
2009,07,16,13,50,21.80
2009,07,16,13,51,21.80
2009,07,16,13,52,21.80
2009,07,16,13,53,21.80
2009,07,16,13,54,21.80
2009,07,16,13,55,22.00
2009,07,16,13,56,22.10
2009,07,16,13,57,22.30
2009,07,16,13,58,22.20
2009,07,16,13,59,22.20
2009,07,16,14,00,22.20
2009,07,16,14,01,22.10
2009,07,16,14,02,22.00
2009,07,16,14,03,22.00
2009,07,16,14,04,21.90
2009,07,16,14,05,22.00
2009,07,16,14,06,22.00
2009,07,16,14,07,22.00
2009,07,16,14,08,22.00
2009,07,16,14,09,22.00
2009,07,16,14,10,22.10
2009,07,16,14,11,22.30
2009,07,16,14,12,22.40
2009,07,16,14,13,22.60
2009,07,16,14,14,22.70
2009,07,16,14,15,22.80
2009,07,16,14,16,22.70
2009,07,16,14,17,22.80
2009,07,16,14,18,22.80
2009,07,16,14,19,22.70
2009,07,16,14,20,22.70
2009,07,16,14,21,22.70
2009,07,16,14,22,22.80
2009,07,16,14,23,22.90
2009,07,16,14,24,22.80
2009,07,16,14,25,22.80
2009,07,16,14,26,22.80
2009,07,16,14,27,22.90
2009,07,16,14,28,23.10
2009,07,16,14,29,23.40
2009,07,16,14,30,23.60
2009,07,16,14,31,23.70
2009,07,16,14,32,23.70
2009,07,16,14,33,23.70
2009,07,16,14,34,23.60
2009,07,16,14,35,23.30
2009,07,16,14,36,23.10
2009,07,16,14,37,22.80
2009,07,16,14,38,22.30
2009,07,16,14,39,22.20
2009,07,16,14,40,22.20
2009,07,16,14,41,22.10
2009,07,16,14,42,22.20
2009,07,16,14,43,22.30
2009,07,16,14,44,22.30
2009,07,16,14,45,22.40
2009,07,16,14,46,22.40
2009,07,16,14,47,22.50
2009,07,16,14,48,22.60
2009,07,16,14,49,22.70
2009,07,16,14,50,22.80
2009,07,16,14,51,22.90
2009,07,16,14,52,22.90
2009,07,16,14,53,23.00
2009,07,16,14,54,23.10
2009,07,16,14,55,23.20
2009,07,16,14,56,23.10
2009,07,16,14,57,23.00
2009,07,16,14,58,23.00
2009,07,16,14,59,23.10
2009,07,16,15,00,23.20
2009,07,16,15,01,23.30
2009,07,16,15,02,23.50
2009,07,16,15,03,23.60
2009,07,16,15,04,23.70
2009,07,16,15,05,23.90
2009,07,16,15,06,24.10
2009,07,16,15,07,24.30
2009,07,16,15,08,24.40
2009,07,16,15,09,24.50
2009,07,16,15,10,24.50
2009,07,16,15,11,24.50
2009,07,16,15,12,24.30
2009,07,16,15,13,24.40
2009,07,16,15,14,24.40
2009,07,16,15,15,24.30
2009,07,16,15,16,24.30
2009,07,16,15,17,24.30
2009,07,16,15,18,24.20
2009,07,16,15,19,24.10
2009,07,16,15,20,24.00
2009,07,16,15,21,23.80
2009,07,16,15,22,23.70
2009,07,16,15,23,23.70
2009,07,16,15,24,23.70
2009,07,16,15,25,23.60
2009,07,16,15,26,23.60
2009,07,16,15,27,23.60
2009,07,16,15,28,23.60
2009,07,16,15,29,23.60
2009,07,16,15,30,23.70
2009,07,16,15,31,23.80
2009,07,16,15,32,24.00
2009,07,16,15,33,24.10
2009,07,16,15,34,24.10
2009,07,16,15,35,24.10
2009,07,16,15,36,24.10
2009,07,16,15,37,24.10
2009,07,16,15,38,24.00
2009,07,16,15,39,23.90
2009,07,16,15,40,23.80
2009,07,16,15,41,23.90
2009,07,16,15,42,24.00
2009,07,16,15,43,24.20
2009,07,16,15,44,24.20
2009,07,16,15,45,24.30
2009,07,16,15,46,24.30
2009,07,16,15,47,24.30
2009,07,16,15,48,24.10
2009,07,16,15,49,24.10
2009,07,16,15,50,24.10
2009,07,16,15,51,24.10
2009,07,16,15,52,24.10
2009,07,16,15,53,24.10
2009,07,16,15,54,24.10
2009,07,16,15,55,24.30
2009,07,16,15,56,24.40
2009,07,16,15,57,24.40
2009,07,16,15,58,24.30
2009,07,16,15,59,24.40
2009,07,16,16,00,24.50
2009,07,16,16,01,24.50
2009,07,16,16,02,24.50
2009,07,16,16,03,24.50
2009,07,16,16,04,24.60
2009,07,16,16,05,24.70
2009,07,16,16,06,24.70
2009,07,16,16,07,24.70
2009,07,16,16,08,24.70
2009,07,16,16,09,24.70
2009,07,16,16,10,24.70
2009,07,16,16,11,24.80
2009,07,16,16,12,24.90
2009,07,16,16,13,25.00
2009,07,16,16,14,25.00
2009,07,16,16,15,24.90
2009,07,16,16,16,25.00
2009,07,16,16,17,25.00
2009,07,16,16,18,25.10
2009,07,16,16,19,25.20
2009,07,16,16,20,25.20
2009,07,16,16,21,25.30
2009,07,16,16,22,25.30
2009,07,16,16,23,25.30
2009,07,16,16,24,25.40
2009,07,16,16,25,25.40
2009,07,16,16,26,25.40
2009,07,16,16,27,25.40
2009,07,16,16,28,25.40
2009,07,16,16,29,25.40
2009,07,16,16,30,25.40
2009,07,16,16,31,25.50
2009,07,16,16,32,25.50
2009,07,16,16,33,25.40
2009,07,16,16,34,25.30
2009,07,16,16,35,25.20
2009,07,16,16,36,25.20
2009,07,16,16,37,25.20
2009,07,16,16,38,25.30
2009,07,16,16,39,25.40
2009,07,16,16,40,25.50
2009,07,16,16,41,25.60
2009,07,16,16,42,25.80
2009,07,16,16,43,25.80
2009,07,16,16,44,25.90
2009,07,16,16,45,25.90
2009,07,16,16,46,26.00
2009,07,16,16,47,26.00
2009,07,16,16,48,26.10
2009,07,16,16,49,26.10
2009,07,16,16,50,26.20
2009,07,16,16,51,26.30
2009,07,16,16,52,26.20
2009,07,16,16,53,26.30
2009,07,16,16,54,26.30
2009,07,16,16,55,26.30
2009,07,16,16,56,26.20
2009,07,16,16,57,26.30
2009,07,16,16,58,26.30
2009,07,16,16,59,26.40
2009,07,16,17,00,26.40
2009,07,16,17,01,26.40
2009,07,16,17,02,26.30
2009,07,16,17,03,26.30
2009,07,16,17,04,26.20
2009,07,16,17,05,26.20
2009,07,16,17,06,26.00
2009,07,16,17,07,25.90
2009,07,16,17,08,25.80
2009,07,16,17,09,25.70
2009,07,16,17,10,25.60
2009,07,16,17,11,25.60
2009,07,16,17,12,25.50
2009,07,16,17,13,25.50
2009,07,16,17,14,25.60
2009,07,16,17,15,25.70
2009,07,16,17,16,25.70
2009,07,16,17,17,25.80
2009,07,16,17,18,25.80
2009,07,16,17,19,25.90